EW4337 Weather Reports


time (UTC)temp
C
wind
direction
speed
KPH
gust
KPH
rain 1hr
cm
rain 24hr
cm
rain mn
cm
humidity
%
barometer
mb
20260506132201 13 31 11.3 29.0 0.00 0.00 0.00 63 1008.9
20260506131701 13 29 11.3 29.0 0.00 0.00 0.00 63 1008.8
20260506130701 13 61 11.3 22.5 0.00 0.00 0.00 62 1008.7
20260506130201 14 18 8.0 22.5 0.00 0.00 0.00 61 1008.7
20260506125701 14 25 8.0 22.5 0.00 0.00 0.00 61 1008.7
20260506125201 14 39 9.7 20.9 0.00 0.00 0.00 61 1008.8
20260506124701 14 11 9.7 22.5 0.00 0.00 0.00 61 1008.7
20260506124201 14 23 8.0 19.3 0.00 0.00 0.00 60 1008.7
20260506123701 14 11 6.4 16.1 0.00 0.00 0.00 60 1008.7
20260506123201 15 22 4.8 24.1 0.00 0.00 0.00 58 1008.7
20260506122701 15 35 9.7 25.7 0.00 0.00 0.00 55 1008.6
20260506122201 15 50 11.3 25.7 0.00 0.00 0.00 54 1008.6
20260506121702 15 47 11.3 32.2 0.00 0.00 0.00 53 1008.7
20260506120701 14 10 11.3 25.7 0.00 0.00 0.00 55 1008.5
20260506120201 14 47 9.7 19.3 0.00 0.00 0.00 57 1008.6
20260506115701 13 50 14.5 24.1 0.00 0.00 0.00 56 1008.6
20260506115202 13 43 9.7 16.1 0.00 0.00 0.00 56 1008.5
20260506114701 13 45 9.7 25.7 0.00 0.00 0.00 56 1008.5
20260506113701 13 37 11.3 22.5 0.00 0.00 0.00 56 1008.5
20260506112202 13 74 11.3 22.5 0.00 0.00 0.00 58 1008.5
20260506111701 13 35 11.3 25.7 0.00 0.00 0.00 57 1008.5
20260506111202 13 33 9.7 19.3 0.00 0.00 0.00 57 1008.5
20260506110701 13 35 12.9 25.7 0.00 0.00 0.00 58 1008.5
20260506110201 13 58 8.0 24.1 0.00 0.00 0.00 58 1008.5
20260506105701 13 42 12.9 24.1 0.00 0.00 0.00 60 1008.5
20260506105201 13 47 14.5 25.7 0.00 0.00 0.00 60 1008.4
20260506104702 13 66 12.9 27.4 0.00 0.00 0.00 60 1008.3
20260506104202 13 33 16.1 32.2 0.00 0.00 0.00 60 1008.4
20260506103701 13 50 11.3 29.0 0.00 0.00 0.00 60 1008.4
20260506103201 13 36 16.1 25.7 0.00 0.00 0.00 61 1008.4
20260506102702 13 38 8.0 29.0 0.00 0.00 0.00 62 1008.4
20260506102201 13 30 9.7 19.3 0.00 0.00 0.00 63 1008.4
20260506101702 13 41 12.9 27.4 0.00 0.00 0.00 62 1008.3
20260506101202 13 13 14.5 22.5 0.00 0.00 0.00 63 1008.3
20260506100701 13 48 11.3 29.0 0.00 0.00 0.00 63 1008.3
20260506100201 13 36 11.3 24.1 0.00 0.00 0.00 64 1008.2
20260506095701 13 42 12.9 24.1 0.00 0.00 0.00 65 1008.2
20260506095201 12 32 12.9 24.1 0.00 0.00 0.00 65 1008.2
20260506094701 12 44 16.1 29.0 0.00 0.00 0.00 64 1008.3
20260506094202 12 29 11.3 24.1 0.00 0.00 0.00 65 1008.3
20260506093702 12 46 9.7 24.1 0.00 0.00 0.00 64 1008.2
20260506093201 12 34 14.5 32.2 0.00 0.00 0.00 64 1008.2
20260506092701 12 30 16.1 29.0 0.00 0.00 0.00 64 1008.2
20260506091702 12 45 9.7 27.4 0.00 0.00 0.00 64 1008.2
20260506091202 12 47 9.7 24.1 0.00 0.00 0.00 64 1008.1
20260506090702 12 43 14.5 32.2 0.00 0.00 0.00 63 1008.1
20260506090202 12 27 11.3 25.7 0.00 0.00 0.00 64 1008.2
20260506085702 12 26 8.0 19.3 0.00 0.00 0.00 64 1008.1
20260506084702 12 45 9.7 22.5 0.00 0.00 0.00 64 1008.1
20260506084202 12 15 14.5 25.7 0.00 0.00 0.00 63 1008.1
20260506083702 12 66 9.7 20.9 0.00 0.00 0.00 63 1008.0
20260506083201 12 36 8.0 22.5 0.00 0.00 0.00 63 1008.0
20260506082702 12 47 11.3 25.7 0.00 0.00 0.00 65 1008.0
20260506082202 12 30 8.0 19.3 0.00 0.00 0.00 67 1008.0
20260506081702 12 26 4.8 19.3 0.00 0.00 0.00 68 1007.9
20260506081202 12 39 11.3 22.5 0.00 0.00 0.00 69 1007.9
20260506080702 12 37 14.5 25.7 0.00 0.00 0.00 70 1007.9
20260506080202 12 49 9.7 22.5 0.00 0.00 0.00 72 1007.9
20260506073202 11 62 9.7 24.1 0.00 0.00 0.00 81 1007.7
20260506072702 11 45 8.0 16.1 0.00 0.00 0.00 82 1007.7
20260506072202 11 42 9.7 22.5 0.00 0.00 0.00 82 1007.7
20260506070702 11 30 4.8 16.1 0.00 0.00 0.00 85 1007.7
20260506070202 11 18 9.7 19.3 0.00 0.00 0.00 86 1007.6
20260506062202 10 352 3.2 12.9 0.00 0.00 0.00 89 1007.5
20260506061702 10 10 9.7 19.3 0.00 0.00 0.00 90 1007.5
20260506061203 10 15 6.4 16.1 0.00 0.00 0.00 90 1007.5
20260506060702 9 340 3.2 19.3 0.00 0.00 0.00 91 1007.5
20260506060202 9 356 4.8 8.0 0.00 0.00 0.00 91 1007.5
20260506051202 8 345 4.8 9.7 0.00 0.00 0.00 92 1007.5
20260506050703 8 351 3.2 8.0 0.00 0.00 0.00 92 1007.5
20260506050202 8 340 3.2 9.7 0.00 0.00 0.00 92 1007.5
20260506044703 8 346 3.2 11.3 0.00 0.00 0.00 92 1007.5
20260506043702 8 328 4.8 9.7 0.00 0.00 0.00 92 1007.5
20260506043203 8 336 3.2 9.7 0.00 0.00 0.00 92 1007.5
20260506041203 8 326 3.2 8.0 0.00 0.00 0.00 91 1007.5
20260506040703 8 339 4.8 8.0 0.00 0.00 0.00 91 1007.5
20260506040204 8 331 3.2 9.7 0.00 0.00 0.00 91 1007.5
20260506035704 8 333 3.2 4.8 0.00 0.00 0.00 91 1007.5
20260506035203 8 330 4.8 8.0 0.00 0.00 0.00 91 1007.5
20260506034702 8 338 4.8 8.0 0.00 0.00 0.00 91 1007.5
20260506034203 8 330 4.8 9.7 0.00 0.00 0.00 91 1007.5
20260506033703 8 350 3.2 8.0 0.00 0.00 0.00 91 1007.6
20260506032703 8 344 3.2 9.7 0.00 0.00 0.00 91 1007.6
20260506032203 8 336 4.8 9.7 0.00 0.00 0.00 90 1007.6
20260506031203 8 334 3.2 9.7 0.00 0.00 0.00 90 1007.7
20260506030703 8 341 4.8 9.7 0.00 0.00 0.00 90 1007.7
20260506025702 8 337 4.8 16.1 0.00 0.00 0.00 89 1007.8
20260506025203 8 321 4.8 12.9 0.00 0.00 0.00 89 1007.7
20260506024203 8 334 6.4 12.9 0.00 0.00 0.00 88 1007.9
20260506023703 8 342 4.8 12.9 0.00 0.00 0.00 88 1007.9
20260506023204 8 347 6.4 12.9 0.00 0.00 0.00 87 1007.9
20260506022703 8 342 8.0 16.1 0.00 0.00 0.00 87 1007.9
20260506022203 8 337 8.0 16.1 0.00 0.00 0.00 87 1008.0
20260506021703 9 337 8.0 12.9 0.00 0.00 0.00 87 1008.0
20260506021203 9 341 6.4 12.9 0.00 0.00 0.00 86 1008.1
20260506020704 9 339 4.8 12.9 0.00 0.00 0.00 86 1008.0
20260506020203 9 358 4.8 14.5 0.00 0.00 0.00 86 1008.1
20260506015704 9 354 4.8 8.0 0.00 0.00 0.00 86 1008.1
20260506015203 9 335 4.8 11.3 0.00 0.00 0.00 86 1008.2
20260506014703 9 353 4.8 14.5 0.00 0.00 0.00 86 1008.2
20260506014203 10 355 6.4 12.9 0.00 0.00 0.00 86 1008.2
20260506013704 10 349 8.0 14.5 0.00 0.00 0.00 86 1008.2
20260506013203 10 314 4.8 12.9 0.00 0.00 0.00 86 1008.2
20260506012704 10 334 6.4 12.9 0.00 0.00 0.00 86 1008.2
20260506012203 10 344 4.8 12.9 0.00 0.00 0.00 86 1008.2
20260506011704 10 340 4.8 14.5 0.00 0.00 0.00 86 1008.3
20260506005704 10 344 4.8 16.1 0.00 0.00 0.00 86 1008.3
20260506005203 10 332 8.0 14.5 0.00 0.00 0.00 85 1008.4
20260506004703 10 337 8.0 16.1 0.00 0.00 0.00 85 1008.5
20260506004205 10 340 4.8 12.9 0.00 0.00 0.00 85 1008.5
20260506003204 10 348 4.8 12.9 0.00 0.00 0.00 85 1008.5
20260506002704 10 353 4.8 16.1 0.00 0.00 0.00 85 1008.6
20260506002204 10 342 8.0 16.1 0.00 0.00 0.00 85 1008.7
20260506001704 10 352 4.8 12.9 0.00 0.00 0.00 85 1008.7
20260506001203 10 10 4.8 14.5 0.00 0.00 0.00 85 1008.8
20260506000205 10 353 4.8 16.1 0.00 0.00 0.00 85 1008.9
20260505235704 10 9 4.8 14.5 0.00 0.00 0.00 85 1008.9
20260505234204 10 338 4.8 14.5 0.00 0.00 0.00 84 1008.9
20260505233704 10 1 4.8 16.1 0.00 0.00 0.00 84 1008.9
20260505233204 10 338 4.8 12.9 0.00 0.00 0.00 84 1008.9
20260505232704 10 347 4.8 14.5 0.00 0.00 0.00 84 1008.9
20260505232203 10 352 4.8 11.3 0.00 0.00 0.00 84 1009.0
20260505231704 10 343 4.8 12.9 0.00 0.00 0.00 84 1009.0
20260505231204 10 341 4.8 9.7 0.00 0.00 0.00 84 1009.1
20260505230704 10 9 4.8 12.9 0.00 0.00 0.00 83 1009.1
20260505230203 10 340 4.8 14.5 0.00 0.00 0.00 83 1009.1
20260505225704 10 337 3.2 4.8 0.00 0.00 0.00 83 1009.2
20260505224704 10 347 3.2 12.9 0.00 0.00 0.00 83 1009.2
20260505224204 10 326 4.8 11.3 0.00 0.00 0.00 83 1009.2
20260505223704 10 356 4.8 12.9 0.00 0.00 0.00 83 1009.3
20260505221704 10 352 3.2 11.3 0.00 0.00 0.00 83 1009.4
20260505221204 10 1 4.8 12.9 0.00 0.00 0.00 83 1009.4
20260505220704 10 9 4.8 16.1 0.00 0.00 0.00 83 1009.4
20260505220204 10 346 6.4 9.7 0.00 0.00 0.00 83 1009.5
20260505215704 10 342 4.8 12.9 0.00 0.00 0.00 83 1009.5
20260505215204 10 337 3.2 11.3 0.00 0.00 0.00 83 1009.6
20260505214704 10 3 4.8 19.3 0.00 0.00 0.00 83 1009.6
20260505214203 10 336 3.2 12.9 0.00 0.00 0.00 83 1009.7
20260505213705 10 346 4.8 12.9 0.00 0.00 0.00 84 1009.7
20260505213204 10 1 4.8 9.7 0.00 0.00 0.00 84 1009.7
20260505212704 10 24 4.8 9.7 0.00 0.00 0.00 84 1009.7
20260505211204 10 13 6.4 14.5 0.00 0.00 0.00 84 1009.7
20260505210704 10 9 3.2 14.5 0.00 0.00 0.00 84 1009.8
20260505210204 10 356 3.2 9.7 0.00 0.00 0.00 84 1009.8
20260505205705 10 18 8.0 14.5 0.00 0.00 0.00 84 1009.9
20260505205205 10 2 3.2 9.7 0.00 0.00 0.00 84 1010.0
20260505204702 10 16 8.0 14.5 0.00 0.00 0.00 84 1009.9
20260505204202 10 10 1.6 12.9 0.00 0.00 0.00 84 1009.9
20260505203703 10 343 1.6 16.1 0.00 0.00 0.00 84 1009.9
20260505202702 10 13 1.6 12.9 0.00 0.00 0.00 84 1010.0
20260505202202 10 25 4.8 16.1 0.00 0.00 0.00 84 1009.9
20260505201703 10 25 9.7 19.3 0.00 0.00 0.00 84 1009.9
20260505201202 10 28 6.4 16.1 0.00 0.00 0.00 84 1009.9
20260505200203 10 14 8.0 20.9 0.00 0.00 0.00 84 1009.8
20260505195703 10 28 6.4 16.1 0.00 0.00 0.00 83 1009.8
20260505195202 10 20 8.0 16.1 0.00 0.00 0.00 83 1009.8
20260505194702 10 358 4.8 11.3 0.00 0.00 0.00 83 1009.7
20260505194204 10 33 8.0 16.1 0.00 0.00 0.00 83 1009.7
20260505193703 10 28 8.0 14.5 0.00 0.00 0.00 83 1009.8
20260505193202 10 16 8.0 14.5 0.00 0.00 0.00 83 1009.8
20260505192702 10 34 4.8 16.1 0.00 0.00 0.00 83 1009.7
20260505192203 10 23 3.2 19.3 0.00 0.00 0.00 82 1009.7
20260505191703 10 1 4.8 19.3 0.00 0.00 0.00 82 1009.7
20260505191202 10 22 8.0 19.3 0.00 0.00 0.00 82 1009.6
20260505190702 10 356 6.4 12.9 0.00 0.00 0.00 82 1009.6
20260505190202 10 42 4.8 19.3 0.00 0.00 0.00 82 1009.6
20260505185703 10 20 3.2 11.3 0.00 0.00 0.00 82 1009.5
20260505183702 11 355 4.8 14.5 0.00 0.00 0.00 82 1009.6
20260505182703 11 23 3.2 12.9 0.00 0.00 0.00 81 1009.5
20260505182202 11 31 9.7 19.3 0.00 0.00 0.00 81 1009.5
20260505181702 11 351 3.2 14.5 0.00 0.00 0.00 81 1009.5
20260505181203 11 3 4.8 14.5 0.00 0.00 0.00 81 1009.5
20260505180703 11 34 8.0 19.3 0.00 0.00 0.00 81 1009.5
20260505180203 11 359 8.0 16.1 0.00 0.00 0.00 80 1009.6
20260505175703 11 356 4.8 16.1 0.00 0.00 0.00 80 1009.6
20260505175203 11 8 9.7 19.3 0.00 0.00 0.00 80 1009.6
20260505174703 11 3 8.0 19.3 0.00 0.00 0.00 80 1009.6
20260505174202 11 35 9.7 22.5 0.00 0.00 0.00 80 1009.6
20260505173702 11 24 8.0 19.3 0.00 0.00 0.00 79 1009.6
20260505172703 11 43 9.7 20.9 0.00 0.00 0.00 79 1009.6
20260505172203 11 13 9.7 19.3 0.00 0.00 0.00 79 1009.6
20260505171703 11 9 4.8 16.1 0.00 0.00 0.00 78 1009.6
20260505171203 11 6 9.7 19.3 0.00 0.00 0.00 78 1009.6
20260505170703 11 15 11.3 19.3 0.00 0.00 0.00 78 1009.6
20260505170203 11 5 8.0 16.1 0.00 0.00 0.00 78 1009.6
20260505165703 11 31 9.7 19.3 0.00 0.00 0.00 79 1009.7
20260505164203 11 1 4.8 16.1 0.00 0.00 0.00 79 1009.7
20260505163705 11 32 3.2 20.9 0.00 0.00 0.00 79 1009.7
20260505163203 11 9 3.2 12.9 0.00 0.00 0.00 79 1009.7
20260505162204 11 28 3.2 12.9 0.00 0.00 0.00 79 1009.7
20260505161203 11 15 3.2 16.1 0.00 0.00 0.00 79 1009.7
20260505160703 11 29 8.0 16.1 0.00 0.00 0.00 79 1009.8
20260505160203 12 29 4.8 12.9 0.00 0.00 0.00 79 1009.8
20260505153203 12 26 6.4 14.5 0.00 0.00 0.00 79 1009.8
20260505152704 12 33 8.0 14.5 0.00 0.00 0.00 79 1009.8
20260505152203 12 351 4.8 19.3 0.00 0.00 0.00 78 1009.8
20260505151703 12 2 4.8 14.5 0.00 0.00 0.00 78 1009.9
20260505151203 12 22 4.8 16.1 0.00 0.00 0.00 78 1009.9
20260505150703 12 4 3.2 14.5 0.00 0.00 0.00 78 1009.9